This is the latest recevied weather packets stored in our database for station/object K1TTC. If no packets are shown the sender has not sent any weather packets the latest 10 day(s).
| Time | Temp. | Humidity | Pressure | Rain* | Wind** | Luminosity | Snow |
|---|---|---|---|---|---|---|---|
| 1788273267 | 17.78° C | 78% | 1019.3 hPa | 0 mm | - | 121 W/m² | - |
| 1788272666 | 17.78° C | 78% | 1019.3 hPa | 0.51 mm | - | 146 W/m² | - |
| 1788272061 | 17.78° C | 78% | 1019.2 hPa | 1.27 mm | - | 134 W/m² | - |
| 1788271451 | 17.78° C | 77% | 1019.3 hPa | 2.03 mm | - | 132 W/m² | - |
| 1788270858 | 17.78° C | 77% | 1019.4 hPa | 3.05 mm | - | 105 W/m² | - |
| 1788270257 | 17.78° C | 76% | 1019.7 hPa | 4.06 mm | - | 83 W/m² | - |
| 1788269651 | 17.78° C | 76% | 1019.8 hPa | 4.57 mm | - | 72 W/m² | - |
| 1788269055 | 18.33° C | 76% | 1019.9 hPa | 4.57 mm | - | 58 W/m² | - |
| 1788268578 | 18.33° C | 75% | 1020 hPa | 4.06 mm | - | 32 W/m² | - |
| 1788267841 | 18.89° C | 75% | 1019.7 hPa | 3.3 mm | - | 25 W/m² | - |
| 1788267351 | 19.44° C | 75% | 1019.7 hPa | 2.29 mm | - | 19 W/m² | - |
| 1788266743 | 19.44° C | 75% | 1020 hPa | 1.27 mm | - | 14 W/m² | - |
| 1788266038 | 19.44° C | 75% | 1020.2 hPa | 0.76 mm | - | 14 W/m² | - |
| 1788265436 | 19.44° C | 74% | 1019.9 hPa | 0.25 mm | - | 14 W/m² | - |
| 1788264837 | 19.44° C | 74% | 1019.7 hPa | 0 mm | - | 16 W/m² | - |
| 1788264237 | 19.44° C | 74% | 1019.8 hPa | 0 mm | - | 14 W/m² | - |
| 1788263637 | 19.44° C | 74% | 1019.7 hPa | 0 mm | - | 9 W/m² | - |
| 1788263035 | 19.44° C | 73% | 1019.8 hPa | 0 mm | - | 14 W/m² | - |
| 1788262433 | 19.44° C | 73% | 1019.8 hPa | 0 mm | - | 11 W/m² | - |
| 1788261835 | 19.44° C | 73% | 1019.7 hPa | 0 mm | - | 12 W/m² | - |
| 1788261233 | 19.44° C | 73% | 1019.6 hPa | 0 mm | - | 11 W/m² | - |
| 1788260635 | 19.44° C | 72% | 1019.4 hPa | 0 mm | - | 9 W/m² | - |
| 1788260034 | 19.44° C | 72% | 1019.4 hPa | 0 mm | - | 0 W/m² | - |
| 1788259434 | 19.44° C | 71% | 1019.1 hPa | 0 mm | - | 0 W/m² | - |
| 1788258834 | 19.44° C | 71% | 1018.9 hPa | 0 mm | - | 0 W/m² | - |
* Rain latest hour (hover to see other rain measurements)
** Current wind speed in m/s (hover to see current wind gust speed)